{"data":{"norad_id":57206,"intl_designator":"2023-091AS","name":"2023-091AS","alt_names":[],"object_type":"PAYLOAD","status":"ACTIVE","operator":null,"country":"CIS","launch_date":"2023-06-27","launch_site_code":"VOSTO","launch_vehicle":null,"mission":null,"orbit_class":"UNKNOWN","rcs_meters":null,"size_class":null,"mass_kg":null,"dimensions":null,"purposes":[],"wikipedia_slug":null,"has_3d_model":false,"image_url":null,"decayed_at":null,"tle_current":{"epoch":"2026-05-25T04:16:31.717632Z","epoch_age_seconds":56873,"freshness":"FRESH","line1":"1 57206U 23091AS  26145.17814488  .00072679  00000+0  90783-3 0  9994","line2":"2 57206  97.5052 223.6466 0004968 133.9336 226.2331 15.59601382161809","mean_motion":15.59601382,"eccentricity":0.0004968,"inclination_deg":97.5052,"raan_deg":223.6466,"arg_perigee_deg":133.9336,"mean_anomaly_deg":226.2331,"bstar":0.00090783,"rev_number":16180,"period_min":92.331285200156,"perigee_km":385.44805716142,"apogee_km":392.17169557778,"semimajor_km":6766.9468763696,"source":"CELESTRAK","updated_at":"2026-05-25T13:37:59.936389Z"}}}